CYGNUS NG-20

Last updated on Sat Jul 13 2024 00:02:07 GMT+0000 (Coordinated Universal Time)

1 58898U 24021A 24194.70121179 .00327239 00000+0 56932-2 0 9997 2 58898 51.6305 188.9449 0010629 37.0654 127.4083 15.49008754 25449

Satellite not in orbit